Home   Weather   Lens   Past weeks

Flag for France Past Weather in Lens, Nord-Pas-de-Calais, France — Yesterday and Last 2 Weeks

Now
54 °F

Passing clouds.


Feels Like: 53 °F
Forecast: 39 / 61 °F
Wind: 5 mph from East

Location: Lille Airport

Current Time: Apr 23, 2017 at 3:52:22 pm

Latest Report: Apr 23, 2017 at 3:00 pm


Visibility: N/A

Pressure: 30.30 "Hg

Humidity: 47%

Dew Point: 34 °F

Location of LensLocation

Past Weather in Lens — Graph

°F

Lens Temperature Yesterday

Maximum temperature yesterday: 55 °F (at 5:30 pm)
Minimum temperature yesterday: 45 °F (at 10:30 am)
Average temperature yesterday: 50 °F

High & Low Weather Summary for the Past Weeks

 TemperatureHumidityPressure
High75 °F (Apr 9, 5:30 pm)100% (Apr 23, 7:00 am)30.66 "Hg (Apr 23, 7:00 am)
Low28 °F (Apr 20, 7:00 am)21% (Apr 9, 5:30 pm)29.98 "Hg (Apr 15, 3:30 am)
Average50 °F65%30.25 "Hg
* Reported Apr 8 2:00 pm — Apr 23 2:00 pm, Lens, Weather by CustomWeather, © 2017

Note: Actual official high and low records may vary slightly from our data, if they occured in-between our weather recording intervals... More about our weather records

Advertising

Lens Weather History for the Previous 24 Hours

Scroll right to see more
 ConditionsComfort  
Time TempWeatherWind HumidityBarometerVisibility
2:00 pm
Sun, Apr 23
54 °FPassing clouds.7 mph44%30.33 "HgN/A
1:30 pm54 °FMostly cloudy.3 mph47%30.33 "HgN/A
1:00 pm54 °FPartly sunny.6 mph44%30.33 "HgN/A
12:30 pm52 °FBroken clouds.5 mph47%30.33 "HgN/A
12:00 pm54 °FPartly sunny.7 mph47%30.36 "HgN/A
11:30 am50 °FPartly sunny.7 mph54%30.36 "HgN/A
11:00 am52 °FPartly sunny.5 mph50%30.36 "HgN/A
10:30 am48 °FPartly sunny.8 mph54%30.36 "HgN/A
9:30 am48 °FPassing clouds.6 mph58%30.36 "HgN/A
9:00 am46 °FPassing clouds.3 mph71%30.36 "HgN/A
8:30 am43 °FSunny.1 mph87%30.33 "Hg10 mi
8:00 am39 °FSunny.1 mph93%30.33 "Hg10 mi
7:30 am37 °FSunny.No wind93%30.33 "Hg10 mi
7:00 am36 °FPassing clouds.3 mph100%30.33 "HgN/A
6:30 am36 °FClear.5 mph93%30.33 "Hg10 mi
6:00 am37 °FClear.1 mph93%30.33 "Hg10 mi
5:30 am37 °FClear.5 mph93%30.33 "Hg10 mi
5:00 am37 °FClear.5 mph93%30.33 "Hg10 mi
4:30 am37 °FClear.5 mph93%30.33 "Hg10 mi
4:00 am37 °FClear.5 mph87%30.33 "Hg10 mi
3:30 am37 °FClear.5 mph93%30.33 "Hg10 mi
3:00 am37 °FClear.6 mph87%30.33 "Hg10 mi
2:30 am39 °FClear.3 mph87%30.36 "Hg10 mi
2:00 am39 °FClear.3 mph87%30.36 "Hg10 mi
1:30 am41 °FClear.1 mph81%30.36 "Hg10 mi
1:00 am43 °FPassing clouds.1 mph76%30.36 "HgN/A
12:30 am45 °FPassing clouds.3 mph71%30.36 "HgN/A
12:00 am45 °FPassing clouds.6 mph71%30.36 "HgN/A
11:30 pm
Sat, Apr 22
46 °FMostly cloudy.7 mph71%30.36 "HgN/A
11:00 pm46 °FPartly cloudy.9 mph71%30.36 "HgN/A
10:30 pm46 °FClear.6 mph66%30.33 "Hg10 mi
10:00 pm48 °FPassing clouds.6 mph62%30.33 "HgN/A
9:30 pm48 °FPassing clouds.7 mph58%30.33 "HgN/A
8:30 pm50 °FSunny.12 mph50%30.33 "Hg10 mi
8:00 pm52 °FSunny.9 mph47%30.30 "Hg10 mi
7:30 pm54 °FSunny.14 mph44%30.30 "Hg10 mi
7:00 pm54 °FPassing clouds.12 mph47%30.30 "HgN/A
6:30 pm54 °FSunny.13 mph44%30.30 "Hg10 mi
6:00 pm54 °FPassing clouds.12 mph44%30.30 "HgN/A
5:30 pm55 °FBroken clouds.10 mph44%30.30 "HgN/A
5:00 pm54 °FMore clouds than sun.9 mph51%30.30 "HgN/A
4:30 pm54 °FMostly cloudy.10 mph54%30.33 "HgN/A
4:00 pm52 °FMore clouds than sun.10 mph62%30.33 "HgN/A
3:30 pm52 °FMostly cloudy.8 mph62%30.33 "HgN/A
3:00 pm52 °FMostly cloudy.8 mph67%30.33 "HgN/A
Weather by CustomWeather, © 2017

See weather overviewHow to use our weather pages